ZHONGXING-22A

Last updated on Thu May 31 2018 01:19:41 GMT+0100 (British Summer Time)

1 29398U 06038A 18150.09391826 -.00000179 00000-0 00000-0 0 9999 2 29398 6.3658 55.8393 0004540 336.5397 231.3908 1.00103493 42950
UTC large
Height (km)
Speed (km/s)
/
Latitude / Longitude
Inclination (degrees)
Orbital Period (minutes)
Azimuth
Elevation
Range (km)
Doppler Factor

Next 0 passes for location: London (51.5072 / 0.1276)

Sorry there are no passes over London.